Durango, CO

3:55 PM MST on December 13, 2017 (GMT -0700)
Durango-La Plata County

Weather History for KDRO - June, 2014

Change the Weather History Date:

Saturday, June 21, 2014

  Actual Average Record
Temperature  
Mean Temperature 64 °F 64 °F  
Max Temperature 85 °F 83 °F 96 °F (2017)
Min Temperature 43 °F 44 °F 36 °F (1997)
Degree Days  
Heating Degree Days 1 2  
Month to date heating degree days 83 101  
Since 1 June heating degree days 83 101  
Since 1 July heating degree days 6836 7109  
Cooling Degree Days 0 1  
Month to date cooling degree days 1 14  
Year to date cooling degree days 6 15  
Since 1 June cooling degree days 1 14  
Growing Degree Days 14 (Base 50)    
Moisture  
Dew Point 23 °F    
Average Humidity 29    
Maximum Humidity 49    
Minimum Humidity 8    
Precipitation  
Precipitation 0.00 in 0.02 in 0.01 in (2002)
Month to date precipitation T 0.35  
Year to date precipitation 2.40 5.78  
Sea Level Pressure  
Sea Level Pressure 29.90 in    
Wind  
Wind Speed 7 mph (NW)    
Max Wind Speed 24 mph    
Max Gust Speed 31 mph    
Visibility 10 miles    
Events      
T = Trace of Precipitation, MM = Missing Value Source: NWS Daily Summary

Daily Weather History Graph

Daily Weather History Graph

Search for Another Location

Airport or City:

Trip Planner

Search our weather history database for the weather conditions in past years. The results will help you decide how hot, cold, wet, or windy it might be!

Date:

Astronomy

Jun. 21, 2014 Rise Set
Actual Time 5:51 AM MDT 8:34 PM MDT
Civil Twilight 5:20 AM MDT 9:05 PM MDT
Nautical Twilight 4:41 AM MDT 9:44 PM MDT
Astronomical Twilight 3:58 AM MDT 10:27 PM MDT
Moon 1:59 AM MDT (6/21) 3:21 PM MDT (6/21)
Length of Visible Light 15h 45m
Length of Day
14h 43m
Waning Crescent, 29% of the Moon is Illuminated
Jun 21
Waning Crescent
Jun 27
New
Jul 5
First Quarter
Jul 12
Full
Jul 18
Last Quarter

Hourly Weather History & Observations

Time (MDT) Temp. Windchill Dew Point Humidity Pressure Visibility Wind Dir Wind Speed Gust Speed Precip Events Conditions
12:53 AM 57.9 °F - 24.1 °F 27% 29.87 in 10.0 mi Variable 3.5 mph - N/A   Clear
1:53 AM 55.0 °F - 24.1 °F 30% 29.87 in 10.0 mi Calm Calm - N/A   Clear
2:53 AM 46.0 °F 43.1 °F 23.0 °F 40% 29.90 in 10.0 mi NE 5.8 mph - N/A   Clear
3:53 AM 44.1 °F 40.8 °F 21.9 °F 42% 29.91 in 10.0 mi NE 5.8 mph - N/A   Clear
4:53 AM 43.0 °F 40.3 °F 25.0 °F 49% 29.92 in 10.0 mi NE 4.6 mph - N/A   Clear
5:53 AM 46.9 °F - 25.0 °F 42% 29.93 in 10.0 mi North 5.8 mph - N/A   Clear
6:53 AM 48.0 °F - 25.0 °F 41% 29.95 in 10.0 mi North 6.9 mph - N/A   Clear
7:53 AM 55.9 °F - 24.1 °F 29% 29.95 in 10.0 mi Calm Calm - N/A   Clear
8:53 AM 64.0 °F - 30.0 °F 28% 29.94 in 10.0 mi ENE 4.6 mph - N/A   Clear
9:53 AM 71.1 °F - 34.0 °F 26% 29.94 in 10.0 mi East 8.1 mph - N/A   Clear
10:53 AM 75.9 °F - 37.9 °F 25% 29.92 in 10.0 mi East 9.2 mph - N/A   Clear
11:53 AM 80.1 °F - 35.1 °F 20% 29.90 in 10.0 mi East 6.9 mph - N/A   Clear
12:53 PM 81.0 °F - 28.9 °F 15% 29.87 in 10.0 mi Variable 3.5 mph - N/A   Partly Cloudy
1:45 PM 84.9 °F - 21.0 °F 10% 30.13 in 10.0 mi WSW 15.0 mph 27.6 mph N/A   Clear
1:53 PM 84.0 °F - 21.0 °F 10% 29.85 in 10.0 mi SW 20.7 mph 28.8 mph N/A   Clear
2:53 PM 80.1 °F - 19.0 °F 10% 29.90 in 10.0 mi WSW 13.8 mph 25.3 mph N/A   Clear
3:53 PM 80.1 °F - 17.1 °F 9% 29.90 in 10.0 mi West 15.0 mph 25.3 mph N/A   Clear
4:53 PM 81.0 °F - 16.0 °F 9% 29.88 in 10.0 mi West 15.0 mph 24.2 mph N/A   Clear
5:53 PM 81.0 °F - 17.1 °F 9% 29.84 in 10.0 mi WSW 11.5 mph - N/A   Clear
6:53 PM 79.0 °F - 12.9 °F 8% 29.84 in 10.0 mi West 12.7 mph - N/A   Clear
7:53 PM 75.9 °F - 14.0 °F 10% 29.83 in 10.0 mi West 11.5 mph - N/A   Clear
8:53 PM 73.0 °F - 16.0 °F 11% 29.82 in 10.0 mi WNW 9.2 mph - N/A   Clear
9:53 PM 68.0 °F - 19.9 °F 16% 29.82 in 10.0 mi WNW 3.5 mph - N/A   Clear
10:53 PM 60.1 °F - 27.0 °F 28% 29.85 in 10.0 mi North 4.6 mph - N/A   Clear
11:53 PM 55.9 °F - 27.0 °F 33% 29.85 in 10.0 mi Calm Calm - N/A   Clear